Location: De Har
(53.3413°N, 6.6858°E)
Time: 05:25:43
(UTC+00:00)

Daily predictions for brighter satellites

Satellite Brightness Start Highest point End
(mag) Time Altitude Azimuth Time Altitude Azimuth Time Altitude Azimuth
Cosmos 1758 Rocket 4.3 00:03:00 10° NNW 00:06:37 39° WNW 00:06:37 39° WNW
Cosmos 1726 Rocket 4.4 00:07:11 37° E 00:07:18 37° E 00:11:11 10° NNE
Cosmos 1331 Rocket 4.0 00:06:53 60° SW 00:07:47 75° WNW 00:13:04 10° NNE
ATLAS 2AS CENTAUR R/B 2.6 00:09:45 39° SW 00:12:36 86° NW 00:19:28 10° NE
DELTA 2 DEB (DPAF) 4.3 00:09:04 10° NNE 00:11:57 51° NE 00:11:57 51° NE
IDEFIX/ARIANE 42P 4.3 00:10:55 10° NE 00:14:53 22° E 00:16:41 18° ESE
Meteor 1-20 Rocket 4.5 00:12:13 10° NNW 00:17:27 48° W 00:18:03 46° WSW
Cosmos 1900 4.2 00:17:30 67° WSW 00:18:11 83° NW 00:23:09 10° NE
Meteor 1-5 Rocket 4.0 00:14:33 10° NNW 00:19:58 81° WSW 00:20:58 60° S
Cosmos 1953 Rocket 3.9 00:17:16 10° N 00:21:41 58° ENE 00:22:18 52° ESE
Cosmos 1980 Rocket 2.4 00:18:21 10° NW 00:23:53 52° WSW 00:24:19 51° SW
Cosmos 1110 Rocket 4.4 00:23:00 44° WSW 00:24:20 56° WNW 00:29:34 10° NNE
Cosmos 1766 4.5 00:21:35 10° N 00:24:17 28° ENE 00:24:17 28° ENE
USA 234 3.5 00:20:53 10° E 00:27:22 69° N 00:33:53 10° WNW
Cosmos 44 Rocket 4.4 00:29:47 31° SE 00:30:04 31° ESE 00:34:36 10° ENE
Cosmos 1825 Rocket 3.5 00:28:07 10° NNW 00:32:19 70° W 00:32:19 70° W
COSMOS 2406 4.4 00:32:29 26° SE 00:34:01 30° ESE 00:38:57 10° NE
Meteor 2-10 4.1 00:29:26 10° NNW 00:34:54 72° W 00:36:03 55° SSW
Cosmos 2369 3.6 00:29:32 10° NW 00:35:14 74° WSW 00:36:38 52° S
Cosmos 1602 Rocket 4.5 00:32:52 10° NNW 00:36:24 34° W 00:36:24 34° W
Cosmos 1634 Rocket 4.4 00:35:56 35° SSE 00:38:16 56° E 00:44:17 10° NNE
CZ-4C R/B 4.0 00:38:06 10° N 00:40:24 38° NNW 00:40:24 38° NNW
Cosmos 2084 3.2 00:46:23 76° ESE 00:46:23 76° ESE 00:50:27 10° NE
Cosmos 1627 Rocket 4.4 00:40:02 10° NNW 00:46:19 79° W 00:48:29 44° S
Spot 1 4.1 00:42:40 10° NNE 00:46:45 60° ESE 00:47:07 57° SE
Cosmos 2360 Rocket 3.2 00:45:27 10° NNW 00:50:56 45° NE 00:56:21 10° ESE
Cosmos 2333 Rocket 2.5 00:46:25 10° NNW 00:52:05 67° NE 00:57:05 14° SE
Cosmos-2242 3.2 00:52:12 52° SE 00:52:44 56° E 00:56:51 10° NNE
Cosmos 1933 4.5 00:53:32 30° WNW 00:53:32 30° WNW 00:56:50 10° N
USA 281 3.2 00:51:27 19° SE 00:56:25 84° ENE 01:03:02 10° NNW
Cosmos 1452 Rocket 4.2 00:58:56 33° W 01:00:41 44° NW 01:05:43 10° NNE
Cosmos 2082 Rocket 2.2 00:59:24 47° SSW 01:01:07 81° ESE 01:06:53 10° NNE
Cosmos 1842 4.5 01:02:44 25° E 01:02:55 25° E 01:05:35 10° NE
Cosmos 1833 Rocket 3.9 01:00:04 20° W 01:03:15 34° NW 01:08:20 10° NNE
Cosmos 2098 Rocket 4.3 01:03:15 36° WSW 01:04:53 45° WNW 01:10:15 10° N
Meteor 2-2 Rocket 4.4 01:02:52 38° SSE 01:04:59 66° E 01:10:35 10° NNE
Cosmos 2278 3.8 01:00:09 10° NNW 01:05:54 75° NE 01:11:11 12° SE
Cosmos 2322 Rocket 2.7 01:00:46 10° NNW 01:06:20 58° NE 01:11:55 10° SE
Cosmos 1486 Rocket 4.0 01:01:28 10° NNW 01:06:42 81° ENE 01:09:36 27° SSE
Cosmos 2279 Rocket 4.3 01:03:59 32° SSE 01:06:57 63° E 01:13:07 10° NNE
NPP 4.5 01:02:17 10° NNE 01:07:25 42° E 01:09:57 26° SSE
Resurs 1-4 Rocket 4.3 01:04:11 10° NE 01:07:52 19° E 01:11:31 10° SE
Cosmos 1867 4.0 01:06:15 32° WSW 01:08:40 58° NW 01:14:05 10° NE
Cosmos 2221 4.0 01:07:40 21° SE 01:09:20 28° E 01:12:52 10° NNE
NOSS 3-3 (A) 4.4 01:14:12 32° SSE 01:15:54 41° ESE 01:21:40 10° NE
ACS3 Solar Sail 1.7 01:10:01 10° N 01:16:03 78° WNW 01:18:33 38° SSW
Cosmos 1777 Rocket 4.0 01:12:02 10° NNW 01:17:21 85° ENE 01:20:41 23° SSE
Cosmos 1606 Rocket 4.3 01:18:01 36° W 01:18:43 38° WNW 01:22:51 10° N
Cosmos 2219 Rocket 3.2 01:14:48 10° NNW 01:20:15 47° NE 01:25:42 10° ESE
SL-16 R/B 2.1 01:15:45 10° NW 01:21:27 76° WSW 01:24:52 25° SSE
Cosmos 1437 Rocket 4.3 01:22:27 21° WNW 01:22:27 21° WNW 01:25:08 10° NNW
H-2A R/B 4.4 01:19:10 10° NE 01:22:31 17° E 01:25:53 10° SE
GP-B 3.3 01:18:29 10° N 01:22:45 52° W 01:23:25 47° WSW
CZ-4C R/B 1.8 01:22:06 48° SW 01:23:25 87° SE 01:29:10 10° NE
Meteor 1-14 Rocket 4.3 01:22:52 10° NNW 01:28:40 78° ENE 01:32:37 21° SSE
Cosmos 1271 Rocket 4.0 01:27:38 25° SE 01:28:41 30° E 01:31:45 10° NNE
ATLAS 3B R/B 3.8 01:22:40 10° WNW 01:28:45 26° WSW 01:29:23 26° WSW
SL-4 R/B 3.4 01:31:34 23° SE 01:31:34 23° SE 01:33:11 10° SE
CZ-2C R/B 4.5 01:30:23 15° W 01:30:52 15° W 01:33:57 10° NW
USA 267 4.3 01:25:18 10° ENE 01:31:06 32° SE 01:34:01 23° S
NOSS 3-3 (C) 4.4 01:30:27 30° S 01:32:36 45° ESE 01:38:33 10° NE
Cosmos 2058 Rocket 3.1 01:32:04 48° SW 01:33:10 69° WNW 01:37:34 10° N
Cosmos 2266 Rocket 4.1 01:28:05 10° N 01:34:15 75° ENE 01:39:09 16° SSE
Cosmos 1470 2.3 01:32:24 10° N 01:35:46 78° ENE 01:36:16 61° SSE
Gbstr 26 Del rocket 3.4 01:37:23 35° SSE 01:37:23 35° SSE 01:39:50 10° ESE
Okean 1 4.3 01:37:01 27° WNW 01:37:07 27° WNW 01:40:12 10° N
KORONAS-FOTON 3.2 01:38:28 74° SSW 01:38:43 85° W 01:42:06 10° N
Cosmos 909 Rocket 4.1 01:37:58 30° SW 01:41:16 78° NW 01:47:47 10° NE
Cosmos 1536 3.3 01:43:30 10° NNW 01:46:48 36° W 01:46:48 36° W
Cosmos 2333 4.2 01:41:14 10° NNW 01:46:56 82° ENE 01:52:38 10° SE
DMSP B5D2-2 4.2 01:45:24 10° SSE 01:50:33 73° ENE 01:55:45 10° NNW
NOSS 3-4 (A) 3.8 01:45:10 10° NW 01:51:39 82° NE 01:59:21 10° SE
Cosmos 1812 Rocket 4.0 01:49:34 25° SSE 01:51:52 56° E 01:56:09 10° NNE
Meteor 2-6 Rocket 4.3 01:49:05 29° SSW 01:52:12 85° WNW 01:58:09 10° NNE
NOSS 3-4 (C) 3.8 01:45:42 10° NW 01:52:13 82° NE 01:59:55 10° SE
Meteor 1-26 Rocket 4.5 01:51:48 31° SW 01:54:06 50° WNW 01:59:23 10° N
IDEFIX/ARIANE 42P 2.6 01:49:40 10° NNE 01:54:51 71° WNW 01:57:22 31° SSW
Envisat 3.8 01:52:31 10° NNE 01:57:24 45° E 02:01:23 15° SSE
Aureole 1 Rocket 3.6 01:54:27 10° NNW 01:58:22 61° ENE 02:03:16 10° SE
Cosmos 2084 Rocket 3.2 01:57:56 10° NW 02:02:07 69° SW 02:06:19 10° SE
Cosmos 1707 3.4 02:03:05 25° WNW 02:03:05 25° WNW 02:05:27 10° NNW
ATLAS 2AS CENTAUR R/B 3.7 01:57:48 10° W 02:04:16 41° NNW 02:10:39 10° NE
Iridium 4 Rocket 3.6 02:03:00 17° S 02:06:33 69° E 02:11:40 10° N
MOZ.5/SAFIR/RUBIN 5/SL-8 3.7 02:05:32 22° S 02:08:27 64° WSW 02:13:06 10° NNW
Cosmos 1975 2.7 02:05:56 10° NNW 02:09:29 52° W 02:10:35 37° SSW
H-2A R/B 2.3 02:06:25 13° SSE 02:09:37 71° ENE 02:13:12 10° NNW
Cosmos 990 Rocket 3.9 02:04:54 10° NNW 02:10:01 69° WSW 02:15:07 10° SSE
USA 234 3.2 02:03:52 10° ESE 02:10:25 75° SSW 02:17:00 10° WNW
ADEOS II 3.3 02:06:02 10° NNE 02:10:53 37° E 02:15:42 10° SSE
Cosmos 44 Rocket 3.6 02:08:21 26° WSW 02:11:14 64° NW 02:16:25 10° NE
ALOS 3.0 02:11:07 10° NNE 02:15:33 48° E 02:19:31 12° S
MSX 4.1 02:10:42 10° N 02:16:18 55° WNW 02:19:47 23° SW
Cosmos 1763 Rocket 3.6 02:13:16 22° SSW 02:16:42 73° ESE 02:22:00 10° NNE
Cosmos 1238 Rocket 3.7 02:15:05 15° SSE 02:17:03 31° E 02:19:48 10° NNE
COSMOS 2406 3.4 02:14:30 24° SW 02:17:58 63° NW 02:23:43 10° NNE
COSMOS 2428 3.9 02:13:44 10° NNW 02:19:16 47° NE 02:24:45 10° ESE
CZ-2D R/B 2.7 02:14:24 10° NNE 02:19:36 56° ESE 02:24:33 11° S
SL-16 R/B 3.7 02:16:32 10° SE 02:22:26 46° ENE 02:28:23 10° N
ADEOS Rocket 3.6 02:15:01 10° NNE 02:22:31 78° WNW 02:28:49 17° SSW
Cosmos 1898 Rocket 3.9 02:22:57 10° NNW 02:28:07 66° ENE 02:33:15 10° SE
Spot 2 4.3 02:24:36 10° SSE 02:29:27 85° WSW 02:34:27 10° NNW
Cosmos 1354 Rocket 4.2 02:27:24 10° NW 02:32:28 48° WSW 02:37:30 10° S
Cosmos 1937 Rocket 4.2 02:27:29 10° NNW 02:32:39 56° ENE 02:37:42 10° SE
Cosmos 220 Rocket 4.3 02:32:09 24° WSW 02:34:15 47° WNW 02:38:11 10° NNE
FENGYUN 3A 4.1 02:29:21 10° N 02:34:35 49° WNW 02:38:14 19° SW
Cosmos 2360 Rocket 2.5 02:29:34 10° NW 02:34:56 44° WSW 02:40:15 10° S
Cosmos 2333 Rocket 3.1 02:31:15 10° NW 02:35:59 28° WSW 02:38:59 18° SSW
Cosmos 1607 4.3 02:31:28 18° WSW 02:36:07 60° NW 02:42:22 10° NE
Cosmos 1842 4.1 02:35:26 21° W 02:36:17 24° WNW 02:38:58 10° NNW
Alouette 2 Rocket 3.2 02:32:37 10° NNW 02:36:59 83° WSW 02:40:33 10° SSE
USA 305 1.2 02:38:24 42° NW 02:38:48 54° N 02:40:10 10° ENE
EP 1 4.2 02:36:34 10° NW 02:39:08 56° SW 02:41:48 10° SSE
USA 281 4.2 02:38:17 18° SW 02:41:36 26° W 02:46:59 10° NW
Meteor 2-10 Rocket 4.0 02:37:21 10° N 02:42:25 64° ENE 02:47:37 10° SSE
H-2A R/B 4.2 02:41:08 10° NE 02:44:19 22° E 02:47:28 10° SE
Cosmos 540 Rocket 3.4 02:41:19 18° SSW 02:45:13 79° WNW 02:50:24 10° NNE
Cosmos 2082 Rocket 3.6 02:41:13 11° W 02:45:50 29° NW 02:50:48 10° NNE
Cosmos 2221 3.2 02:43:58 20° SW 02:46:15 36° WNW 02:50:06 10° N
NPP 4.4 02:42:39 10° N 02:47:38 39° WNW 02:51:28 16° WSW
Resurs 1-4 Rocket 2.1 02:42:58 10° NNE 02:48:19 84° WNW 02:53:19 12° SSW
Cosmos 2322 Rocket 2.9 02:45:10 10° NW 02:50:06 32° WSW 02:55:02 10° SSW
Cosmos 468 Rocket 4.2 02:46:38 12° SSW 02:51:31 74° ESE 02:56:49 10° NNE
BREEZE-M DEB (TANK) 3.4 02:50:12 18° WSW 02:52:10 46° S 02:59:20 10° ESE
DNEPR-1 R/B 4.4 02:48:20 10° NW 02:53:25 50° SW 02:59:33 10° SSE
TiPS 4.3 02:55:44 31° NNW 02:55:44 31° NNW 02:56:47 10° NNE
Cosmos 1766 Rocket 3.6 02:51:46 10° NNW 02:56:04 58° W 03:00:17 10° S
ACS3 Solar Sail 3.4 02:53:26 10° N 02:57:37 20° NW 03:01:50 10° W
Cosmos 1833 4.3 02:53:59 13° SSW 02:59:07 87° ESE 03:04:50 10° NNE
H-2A R/B 2.1 02:57:20 10° NNE 03:02:28 88° WNW 03:07:43 10° SSW
Cosmos 1271 Rocket 3.8 03:01:02 16° WSW 03:02:56 25° WNW 03:05:52 10° N
Cosmos 2219 Rocket 2.6 02:58:55 10° NW 03:04:10 41° WSW 03:09:26 10° S
Cosmos 2237 Rocket 3.5 02:58:47 10° NNW 03:04:17 45° NE 03:09:44 10° ESE
SL-16 R/B 3.8 03:01:24 10° WNW 03:04:36 16° W 03:06:38 13° WSW
CRYOSAT 2 4.3 03:00:13 10° S 03:05:05 77° W 03:10:01 10° N
RESURS DK-1 4.0 03:01:47 10° NNW 03:05:31 37° NE 03:09:13 10° ESE
Cosmos 44 4.3 03:00:14 10° NW 03:05:37 58° NE 03:10:53 10° ESE
Meteor 1-11 Rocket 4.5 03:00:35 10° NNW 03:05:52 35° W 03:11:02 10° SSW
SL-4 R/B 3.4 03:05:08 15° WSW 03:06:14 17° SW 03:08:43 10° S
NOSS 3-3 (A) 4.2 03:01:35 13° WSW 03:06:30 59° NNW 03:13:10 10° NE
Meteor 2-11 Rocket 4.4 03:00:38 10° NNW 03:06:48 73° W 03:12:54 10° S
SL-14 R/B 4.5 03:06:21 10° SSE 03:10:01 42° E 03:13:43 10° NNE
CZ-4C R/B 3.3 03:07:41 10° W 03:12:17 37° NNW 03:18:10 10° NE
USA 290 2.6 03:10:18 15° SW 03:12:44 47° WNW 03:15:50 10° NNE
ARGOS 3.7 03:08:04 10° NNE 03:13:26 59° ESE 03:18:42 10° S
Cosmos 1408 Rocket 4.2 03:09:57 10° N 03:14:13 58° ENE 03:18:25 10° SSE
USA 267 3.4 03:08:10 10° ENE 03:14:46 77° SSE 03:21:21 10° WSW
Cosmos 1745 Rocket 4.5 03:08:40 10° N 03:14:51 65° ENE 03:20:55 10° SSE
METEOR-M 4.2 03:10:43 10° NNE 03:16:05 85° ESE 03:21:25 10° SSW
Gbstr 26 Del rocket 4.2 03:19:26 10° WSW 03:21:45 16° SW 03:24:03 10° S
NOSS 3-3 (C) 4.3 03:17:53 10° WSW 03:23:22 57° NNW 03:30:05 10° NE
Cosmos 2322 3.7 03:18:57 10° NW 03:24:39 69° WSW 03:30:18 10° SSE
NOSS 3 (A) 4.1 03:28:23 10° NW 03:30:33 54° SW 03:33:19 10° SSE
ISS -2.0 03:29:46 10° SSW 03:32:33 24° SSE 03:35:21 10° E
IDEFIX/ARIANE 42P 4.4 03:30:23 10° NNW 03:33:28 16° NW 03:36:35 10° W
Envisat 3.9 03:31:42 10° N 03:36:14 34° WNW 03:40:45 10° SW
BREEZE-M DEB (TANK) 3.4 03:32:24 10° SW 03:37:35 29° SSE 03:40:10 10° ESE
Aureole 1 Rocket 4.4 03:36:57 10° NW 03:40:07 21° WSW 03:43:46 10° SSW
Meteor 2-4 Rocket 3.9 03:35:42 10° SW 03:40:55 50° WNW 03:46:08 10° N
NOSS 3-4 (A) 4.4 03:36:16 10° WNW 03:42:14 34° WSW 03:49:04 10° S
NOSS 3-4 (C) 4.4 03:36:48 10° WNW 03:42:49 34° WSW 03:49:40 10° S
